When you browse on this site, cookies collect data to enhance your experience and personalize the content and advertising you see.
Visit our Privacy Policy to learn more. By continuing to use the site, you agree to this use of cookies and data.
  • In Norway
  • List of Countries
  • For 7 days
  • Water Temperature
  • Satellite Maps
  • Weather Map
  • Weather Widgets
  • user-avatar
    Login

    Hourly Weather Hobart

    Today, 23 January, Wednesday

    Time Temperature Precipitation Wind Pressure Humidity
    00:00 +16°C° 0 mm 2 mps 744 mmHg 88%
    01:00 +16°C° 0 mm 2 mps 745 mmHg 84%
    02:00 +14°C° 0.1 mm 3 mps 745 mmHg 85%
    03:00 +14°C° 0.1 mm 4 mps 746 mmHg 85%
    04:00 +11°C° 0 mm 6 mps 746 mmHg 83%
    05:00 +12°C° 0 mm 5 mps 747 mmHg 78%
    06:00 +12°C° 0 mm 5 mps 748 mmHg 73%
    07:00 +12°C° 0 mm 4 mps 749 mmHg 69%
    08:00 +14°C° 0 mm 4 mps 749 mmHg 61%
    09:00 +16°C° 0 mm 3 mps 749 mmHg 53%
    10:00 +18°C° 0 mm 3 mps 750 mmHg 42%
    11:00 +19°C° 0 mm 3 mps 750 mmHg 39%
    12:00 +19°C° 0 mm 3 mps 750 mmHg 37%
    13:00 +20°C° 0 mm 3 mps 750 mmHg 35%
    14:00 +20°C° 0 mm 3 mps 750 mmHg 36%
    15:00 +20°C° 0 mm 4 mps 750 mmHg 38%
    16:00 +19°C° 0 mm 4 mps 750 mmHg 39%
    17:00 +18°C° 0 mm 3 mps 751 mmHg 45%
    18:00 +16°C° 0 mm 3 mps 751 mmHg 51%
    19:00 +14°C° 0 mm 3 mps 751 mmHg 56%
    20:00 +14°C° 0 mm 2 mps 751 mmHg 61%
    21:00 +13°C° 0 mm 2 mps 752 mmHg 66%
    22:00 +12°C° 0 mm 1 mps 752 mmHg 71%
    23:00 +12°C° 0 mm 1 mps 752 mmHg 72%

    Tomorrow, 24 January, Thursday

    Time Temperature Precipitation Wind Pressure Humidity
    00:00 +12°C° 0 mm 1 mps 752 mmHg 74%
    01:00 +12°C° 0 mm 1 mps 751 mmHg 75%
    02:00 +11°C° 0 mm 1 mps 751 mmHg 77%
    03:00 +11°C° 0 mm 1 mps 751 mmHg 80%
    04:00 +10°C° 0 mm 1 mps 751 mmHg 83%
    05:00 +12°C° 0 mm 2 mps 751 mmHg 76%
    06:00 +13°C° 0 mm 2 mps 751 mmHg 70%
    07:00 +15°C° 0 mm 2 mps 751 mmHg 64%
    08:00 +17°C° 0 mm 2 mps 750 mmHg 56%
    09:00 +20°C° 0 mm 2 mps 750 mmHg 47%
    10:00 +22°C° 0 mm 3 mps 750 mmHg 39%
    11:00 +25°C° 0 mm 3 mps 749 mmHg 35%
    12:00 +27°C° 0 mm 3 mps 749 mmHg 32%
    13:00 +29°C° 0 mm 4 mps 748 mmHg 29%
    14:00 +29°C° 0 mm 4 mps 748 mmHg 29%
    15:00 +29°C° 0 mm 5 mps 747 mmHg 30%
    16:00 +30°C° 0 mm 5 mps 747 mmHg 30%
    17:00 +28°C° 0 mm 5 mps 746 mmHg 34%
    18:00 +27°C° 0 mm 5 mps 745 mmHg 38%
    19:00 +26°C° 0 mm 5 mps 745 mmHg 42%
    20:00 +25°C° 0 mm 5 mps 744 mmHg 45%
    21:00 +22°C° 0 mm 5 mps 744 mmHg 48%
    22:00 +21°C° 0 mm 5 mps 743 mmHg 50%
    23:00 +21°C° 0 mm 5 mps 743 mmHg 49%

    Day after tomorrow, 25 January, Friday

    Time Temperature Precipitation Wind Pressure Humidity
    00:00 +21°C° 0 mm 5 mps 742 mmHg 48%
    01:00 +21°C° 0 mm 5 mps 741 mmHg 46%
    02:00 +22°C° 0 mm 5 mps 740 mmHg 44%
    03:00 +23°C° 0 mm 5 mps 739 mmHg 42%
    04:00 +23°C° 0 mm 5 mps 738 mmHg 40%
    05:00 +27°C° 0 mm 5 mps 738 mmHg 36%
    06:00 +29°C° 0 mm 5 mps 738 mmHg 33%
    07:00 +32°C° 0 mm 6 mps 738 mmHg 29%
    08:00 +35°C° 0 mm 6 mps 738 mmHg 26%
    09:00 +38°C° 0 mm 7 mps 738 mmHg 22%
    10:00 +41°C° 0 mm 8 mps 737 mmHg 19%
    11:00 +41°C° 0 mm 7 mps 737 mmHg 19%
    12:00 +42°C° 0 mm 6 mps 737 mmHg 20%
    13:00 +44°C° 0 mm 6 mps 736 mmHg 20%
    14:00 +41°C° 0 mm 5 mps 736 mmHg 23%
    15:00 +39°C° 0 mm 5 mps 736 mmHg 26%
    16:00 +36°C° 0 mm 5 mps 735 mmHg 29%
    17:00 +33°C° 0.2 mm 4 mps 736 mmHg 31%
    18:00 +30°C° 0.2 mm 4 mps 736 mmHg 33%
    19:00 +27°C° 0.2 mm 4 mps 736 mmHg 35%
    20:00 +25°C° 0 mm 4 mps 737 mmHg 44%
    21:00 +22°C° 0 mm 4 mps 737 mmHg 52%
    22:00 +20°C° 0 mm 4 mps 738 mmHg 61%
    23:00 +19°C° 0 mm 4 mps 738 mmHg 64%

    26 January, Saturday

    Time Temperature Precipitation Wind Pressure Humidity
    00:00 +18°C° 0 mm 3 mps 739 mmHg 66%
    01:00 +17°C° 0 mm 3 mps 739 mmHg 69%
    02:00 +16°C° 0 mm 3 mps 740 mmHg 70%
    03:00 +16°C° 0 mm 3 mps 740 mmHg 71%
    04:00 +15°C° 0 mm 2 mps 741 mmHg 72%
    05:00 +15°C° 0 mm 2 mps 741 mmHg 68%
    06:00 +16°C° 0 mm 2 mps 742 mmHg 65%
    07:00 +17°C° 0 mm 2 mps 742 mmHg 62%
    08:00 +19°C° 0 mm 2 mps 742 mmHg 53%
    09:00 +23°C° 0 mm 1 mps 742 mmHg 45%
    10:00 +26°C° 0 mm 1 mps 743 mmHg 37%
    11:00 +27°C° 0 mm 2 mps 742 mmHg 34%
    12:00 +28°C° 0 mm 2 mps 742 mmHg 32%
    13:00 +29°C° 0 mm 3 mps 741 mmHg 30%
    14:00 +27°C° 0 mm 3 mps 741 mmHg 38%
    15:00 +23°C° 0 mm 4 mps 740 mmHg 45%
    16:00 +21°C° 0 mm 5 mps 740 mmHg 53%
    17:00 +20°C° 0 mm 4 mps 740 mmHg 62%
    18:00 +18°C° 0 mm 3 mps 740 mmHg 71%
    19:00 +16°C° 0 mm 2 mps 740 mmHg 80%
    20:00 +16°C° 0 mm 2 mps 740 mmHg 82%
    21:00 +16°C° 0 mm 3 mps 740 mmHg 85%
    22:00 +14°C° 0 mm 3 mps 740 mmHg 88%
    23:00 +14°C° 0 mm 2 mps 739 mmHg 89%

    27 January, Sunday

    Time Temperature Precipitation Wind Pressure Humidity
    00:00 +13°C° 0 mm 2 mps 739 mmHg 91%
    01:00 +12°C° 0 mm 1 mps 738 mmHg 92%
    02:00 +12°C° 0 mm 2 mps 738 mmHg 88%
    03:00 +12°C° 0 mm 2 mps 738 mmHg 83%
    04:00 +11°C° 0 mm 3 mps 738 mmHg 78%
    05:00 +13°C° 0 mm 4 mps 739 mmHg 72%
    06:00 +15°C° 0 mm 4 mps 739 mmHg 65%
    07:00 +16°C° 0 mm 5 mps 739 mmHg 59%
    08:00 +17°C° 0 mm 5 mps 740 mmHg 58%
    09:00 +17°C° 0 mm 5 mps 740 mmHg 56%
    10:00 +17°C° 0 mm 5 mps 740 mmHg 55%
    11:00 +17°C° 0 mm 5 mps 740 mmHg 53%
    12:00 +17°C° 0 mm 5 mps 740 mmHg 50%
    13:00 +17°C° 0 mm 5 mps 740 mmHg 48%
    14:00 +17°C° 0 mm 5 mps 740 mmHg 48%
    15:00 +17°C° 0 mm 5 mps 740 mmHg 48%
    16:00 +17°C° 0 mm 5 mps 741 mmHg 48%
    17:00 +16°C° 0 mm 5 mps 741 mmHg 49%
    18:00 +16°C° 0 mm 5 mps 741 mmHg 51%
    19:00 +15°C° 0 mm 5 mps 742 mmHg 53%
    20:00 +14°C° 0 mm 5 mps 742 mmHg 56%
    21:00 +13°C° 0 mm 4 mps 743 mmHg 59%
    22:00 +13°C° 0 mm 4 mps 743 mmHg 62%
    23:00 +13°C° 0 mm 4 mps 743 mmHg 63%

    28 January, Monday

    Time Temperature Precipitation Wind Pressure Humidity
    00:00 +13°C° 0 mm 4 mps 743 mmHg 65%
    01:00 +13°C° 0 mm 4 mps 743 mmHg 66%
    02:00 +14°C° 0 mm 4 mps 743 mmHg 67%
    03:00 +14°C° 0 mm 3 mps 743 mmHg 67%
    04:00 +14°C° 0 mm 3 mps 743 mmHg 68%
    05:00 +15°C° 0 mm 4 mps 743 mmHg 65%
    06:00 +17°C° 0 mm 4 mps 743 mmHg 63%
    07:00 +17°C° 0 mm 4 mps 743 mmHg 60%
    08:00 +19°C° 0 mm 5 mps 743 mmHg 56%
    09:00 +20°C° 0 mm 6 mps 743 mmHg 51%
    10:00 +21°C° 0 mm 6 mps 743 mmHg 47%
    11:00 +22°C° 0 mm 7 mps 743 mmHg 47%
    12:00 +22°C° 0 mm 7 mps 742 mmHg 47%
    13:00 +22°C° 0 mm 7 mps 742 mmHg 47%
    14:00 +22°C° 0 mm 7 mps 742 mmHg 48%
    15:00 +22°C° 0 mm 7 mps 742 mmHg 50%
    16:00 +22°C° 0 mm 7 mps 742 mmHg 52%
    17:00 +21°C° 0 mm 6 mps 742 mmHg 55%
    18:00 +21°C° 0 mm 6 mps 743 mmHg 58%
    19:00 +20°C° 0 mm 5 mps 743 mmHg 61%
    20:00 +19°C° 0 mm 4 mps 743 mmHg 65%
    21:00 +18°C° 0 mm 3 mps 744 mmHg 70%
    22:00 +17°C° 0 mm 2 mps 744 mmHg 74%
    23:00 +17°C° 0 mm 2 mps 744 mmHg 75%
    Show more